Time,TemperatureF,DewpointF,PressureIn,WindDirection,WindDirectionDegrees,WindSpeedMPH,WindSpeedGustMPH,Humidity,HourlyPrecipIn,Conditions,Clouds,dailyrainin,SoftwareType,DateUTC
2013-04-01 00:09:00,44.7,37.0,29.79,WNW,300,1.0,4.0,75,0.00,,,0.11,weatherlink.com 1.10,2013-04-01 04:09:00,
2013-04-01 00:24:00,44.2,36.0,29.80,ENE,68,2.0,9.0,73,0.00,,,0.00,weatherlink.com 1.10,2013-04-01 04:24:00,
2013-04-01 00:39:00,43.6,35.0,29.80,NNW,347,3.0,8.0,73,0.00,,,0.00,weatherlink.com 1.10,2013-04-01 04:39:00,
2013-04-01 00:54:00,43.1,35.0,29.80,SW,233,1.0,7.0,73,0.00,,,0.00,weatherlink.com 1.10,2013-04-01 04:54:00,
2013-04-01 01:09:00,43.1,35.0,29.80,NW,314,3.0,8.0,73,0.00,,,0.00,weatherlink.com 1.10,2013-04-01 05:09:00,
2013-04-01 01:24:00,42.6,35.0,29.80,NNE,16,5.0,11.0,74,0.00,,,0.00,weatherlink.com 1.10,2013-04-01 05:24:00,
2013-04-01 01:39:00,42.4,34.0,29.81,WNW,285,5.0,8.0,72,0.00,,,0.00,weatherlink.com 1.10,2013-04-01 05:39:00,
2013-04-01 01:54:00,41.5,34.0,29.82,West,266,1.0,7.0,74,0.00,,,0.00,weatherlink.com 1.10,2013-04-01 05:54:00,
2013-04-01 02:10:00,40.8,32.0,29.82,WNW,289,3.0,8.0,70,0.00,,,0.00,weatherlink.com 1.10,2013-04-01 06:10:00,
2013-04-01 02:25:00,40.3,32.0,29.82,WNW,301,3.0,7.0,72,0.00,,,0.00,weatherlink.com 1.10,2013-04-01 06:25:00,
2013-04-01 02:40:00,39.9,32.0,29.83,WNW,302,3.0,10.0,74,0.00,,,0.00,weatherlink.com 1.10,2013-04-01 06:40:00,
2013-04-01 02:55:00,39.4,32.0,29.84,West,277,2.0,8.0,75,0.00,,,0.00,weatherlink.com 1.10,2013-04-01 06:55:00,
2013-04-01 03:10:00,38.8,32.0,29.84,NNW,347,2.0,7.0,77,0.00,,,0.00,weatherlink.com 1.10,2013-04-01 07:10:00,
2013-04-01 03:25:00,38.2,32.0,29.84,NNE,32,3.0,6.0,77,0.00,,,0.00,weatherlink.com 1.10,2013-04-01 07:25:00,
2013-04-01 03:40:00,37.9,31.0,29.84,WNW,297,1.0,11.0,77,0.00,,,0.00,weatherlink.com 1.10,2013-04-01 07:40:00,
2013-04-01 03:55:00,37.5,31.0,29.84,NW,304,4.0,9.0,76,0.00,,,0.00,weatherlink.com 1.10,2013-04-01 07:55:00,
2013-04-01 04:10:00,36.8,30.0,29.85,WNW,295,3.0,7.0,76,0.00,,,0.00,weatherlink.com 1.10,2013-04-01 08:10:00,
2013-04-01 04:25:00,36.6,30.0,29.86,North,4,3.0,7.0,76,0.00,,,0.00,weatherlink.com 1.10,2013-04-01 08:25:00,
2013-04-01 04:40:00,37.0,30.0,29.86,WNW,297,3.0,11.0,76,0.00,,,0.00,weatherlink.com 1.10,2013-04-01 08:40:00,
2013-04-01 04:55:00,36.9,30.0,29.87,NW,304,2.0,9.0,76,0.00,,,0.00,weatherlink.com 1.10,2013-04-01 08:55:00,
2013-04-01 05:10:00,36.6,30.0,29.87,NNE,18,3.0,7.0,76,0.00,,,0.00,weatherlink.com 1.10,2013-04-01 09:10:00,
2013-04-01 05:25:00,36.3,30.0,29.88,NE,47,1.0,8.0,77,0.00,,,0.00,weatherlink.com 1.10,2013-04-01 09:25:00,
2013-04-01 05:40:00,35.9,30.0,29.90,WNW,290,2.0,9.0,78,0.00,,,0.00,weatherlink.com 1.10,2013-04-01 09:40:00,
2013-04-01 05:55:00,35.5,29.0,29.90,WNW,291,6.0,10.0,78,0.00,,,0.00,weatherlink.com 1.10,2013-04-01 09:55:00,
2013-04-01 06:10:00,34.8,29.0,29.91,East,84,0.0,7.0,79,0.00,,,0.00,weatherlink.com 1.10,2013-04-01 10:10:00,
2013-04-01 06:25:00,34.5,29.0,29.91,West,277,1.0,5.0,79,0.00,,,0.00,weatherlink.com 1.10,2013-04-01 10:25:00,
2013-04-01 06:40:00,34.2,29.0,29.92,WNW,293,3.0,6.0,80,0.00,,,0.00,weatherlink.com 1.10,2013-04-01 10:40:00,
2013-04-01 06:56:00,33.8,29.0,29.93,West,279,1.0,5.0,81,0.00,,,0.00,weatherlink.com 1.10,2013-04-01 10:56:00,
2013-04-01 07:11:00,33.3,28.0,29.94,NNE,16,0.0,7.0,82,0.00,,,0.00,weatherlink.com 1.10,2013-04-01 11:11:00,
2013-04-01 07:26:00,32.9,28.0,29.95,North,1,3.0,8.0,83,0.00,,,0.00,weatherlink.com 1.10,2013-04-01 11:26:00,
2013-04-01 07:41:00,33.0,28.0,29.96,NNW,338,1.0,4.0,82,0.00,,,0.00,weatherlink.com 1.10,2013-04-01 11:41:00,
2013-04-01 07:56:00,33.3,28.0,29.97,NNW,335,2.0,4.0,82,0.00,,,0.00,weatherlink.com 1.10,2013-04-01 11:56:00,
2013-04-01 08:41:00,36.6,28.0,30.00,NE,39,1.0,6.0,72,0.00,,,0.00,weatherlink.com 1.10,2013-04-01 12:41:00,
2013-04-01 09:11:00,37.3,24.0,30.01,North,356,2.0,6.0,60,0.00,,,0.00,weatherlink.com 1.10,2013-04-01 13:11:00,
2013-04-01 09:26:00,38.0,26.0,30.01,ENE,60,3.0,6.0,63,0.00,,,0.00,weatherlink.com 1.10,2013-04-01 13:26:00,
2013-04-01 09:56:00,38.8,25.0,30.02,North,360,6.0,7.0,58,0.00,,,0.00,weatherlink.com 1.10,2013-04-01 13:56:00,
2013-04-01 10:26:00,40.6,28.0,30.03,ENE,72,3.0,7.0,60,0.00,,,0.00,weatherlink.com 1.10,2013-04-01 14:26:00,
2013-04-01 10:41:00,39.8,26.0,30.04,West,275,4.0,8.0,58,0.00,,,0.00,weatherlink.com 1.10,2013-04-01 14:41:00,
2013-04-01 10:56:00,37.8,25.0,30.04,NNE,18,1.0,7.0,60,0.00,,,0.00,weatherlink.com 1.10,2013-04-01 14:56:00,
2013-04-01 11:26:00,38.6,26.0,30.05,NW,312,2.0,8.0,62,0.00,,,0.00,weatherlink.com 1.10,2013-04-01 15:26:00,
2013-04-01 11:41:00,41.4,28.0,30.05,NNW,348,6.0,7.0,59,0.00,,,0.00,weatherlink.com 1.10,2013-04-01 15:41:00,
2013-04-01 11:56:00,40.4,26.0,30.05,West,275,1.0,9.0,57,0.00,,,0.00,weatherlink.com 1.10,2013-04-01 15:56:00,
2013-04-01 12:11:00,39.5,26.0,30.05,North,4,1.0,7.0,60,0.00,,,0.00,weatherlink.com 1.10,2013-04-01 16:11:00,
2013-04-01 12:26:00,41.6,28.0,30.05,WNW,302,2.0,11.0,60,0.00,,,0.00,weatherlink.com 1.10,2013-04-01 16:26:00,
2013-04-01 12:41:00,41.1,26.0,30.06,NNE,15,2.0,9.0,55,0.00,,,0.00,weatherlink.com 1.10,2013-04-01 16:41:00,
2013-04-01 12:56:00,40.4,26.0,30.06,West,278,2.0,7.0,57,0.00,,,0.00,weatherlink.com 1.10,2013-04-01 16:56:00,
2013-04-01 13:11:00,40.6,27.0,30.06,ENE,60,4.0,8.0,59,0.00,,,0.00,weatherlink.com 1.10,2013-04-01 17:11:00,
2013-04-01 13:26:00,42.4,24.0,30.06,WNW,294,4.0,8.0,49,0.00,,,0.00,weatherlink.com 1.10,2013-04-01 17:26:00,
2013-04-01 13:41:00,40.5,24.0,30.06,North,6,2.0,9.0,52,0.00,,,0.00,weatherlink.com 1.10,2013-04-01 17:41:00,
2013-04-01 13:56:00,41.5,25.0,30.06,ENE,65,2.0,11.0,52,0.00,,,0.00,weatherlink.com 1.10,2013-04-01 17:56:00,
2013-04-01 14:11:00,45.5,27.0,30.06,NNW,332,3.0,10.0,48,0.00,,,0.00,weatherlink.com 1.10,2013-04-01 18:11:00,
2013-04-01 14:26:00,45.1,27.0,30.06,NNE,29,3.0,8.0,49,0.00,,,0.00,weatherlink.com 1.10,2013-04-01 18:26:00,
2013-04-01 14:41:00,41.9,24.0,30.06,NNW,329,3.0,11.0,49,0.00,,,0.00,weatherlink.com 1.10,2013-04-01 18:41:00,
2013-04-01 14:56:00,42.5,25.0,30.05,NNE,32,3.0,10.0,50,0.00,,,0.00,weatherlink.com 1.10,2013-04-01 18:56:00,
2013-04-01 15:11:00,42.6,22.0,30.05,NNW,337,3.0,17.0,45,0.00,,,0.00,weatherlink.com 1.10,2013-04-01 19:11:00,
2013-04-01 15:26:00,44.1,25.0,30.05,NE,37,5.0,9.0,47,0.00,,,0.00,weatherlink.com 1.10,2013-04-01 19:26:00,
2013-04-01 15:41:00,44.7,24.0,30.06,NW,323,2.0,9.0,45,0.00,,,0.00,weatherlink.com 1.10,2013-04-01 19:41:00,
2013-04-01 15:56:00,45.1,25.0,30.06,WNW,287,3.0,12.0,45,0.00,,,0.00,weatherlink.com 1.10,2013-04-01 19:56:00,
2013-04-01 16:12:00,43.4,25.0,30.06,WNW,290,5.0,9.0,48,0.00,,,0.00,weatherlink.com 1.10,2013-04-01 20:12:00,
2013-04-01 16:27:00,45.3,26.0,30.06,NW,307,6.0,9.0,48,0.00,,,0.00,weatherlink.com 1.10,2013-04-01 20:27:00,
2013-04-01 16:42:00,44.8,25.0,30.06,WSW,250,4.0,9.0,47,0.00,,,0.00,weatherlink.com 1.10,2013-04-01 20:42:00,
2013-04-01 16:57:00,45.2,25.0,30.06,WSW,258,7.0,10.0,46,0.00,,,0.00,weatherlink.com 1.10,2013-04-01 20:57:00,
2013-04-01 17:12:00,42.5,23.0,30.05,West,277,2.0,11.0,47,0.00,,,0.00,weatherlink.com 1.10,2013-04-01 21:12:00,
2013-04-01 17:27:00,43.5,23.0,30.05,ENE,66,5.0,12.0,45,0.00,,,0.00,weatherlink.com 1.10,2013-04-01 21:27:00,
2013-04-01 17:42:00,44.9,23.0,30.05,WNW,294,11.0,11.0,42,0.00,,,0.00,weatherlink.com 1.10,2013-04-01 21:42:00,
2013-04-01 17:57:00,44.7,23.0,30.05,WSW,256,4.0,11.0,43,0.00,,,0.00,weatherlink.com 1.10,2013-04-01 21:57:00,
2013-04-01 18:12:00,43.8,21.0,30.06,NE,53,5.0,7.0,41,0.00,,,0.00,weatherlink.com 1.10,2013-04-01 22:12:00,
2013-04-01 18:27:00,43.9,23.0,30.06,NW,316,2.0,12.0,44,0.00,,,0.00,weatherlink.com 1.10,2013-04-01 22:27:00,
2013-04-01 18:42:00,42.4,21.0,30.06,WNW,297,5.0,12.0,42,0.00,,,0.00,weatherlink.com 1.10,2013-04-01 22:42:00,
2013-04-01 18:57:00,41.8,20.0,30.06,WNW,289,2.0,8.0,42,0.00,,,0.00,weatherlink.com 1.10,2013-04-01 22:57:00,
2013-04-01 19:12:00,41.8,20.0,30.06,West,270,7.0,12.0,41,0.00,,,0.00,weatherlink.com 1.10,2013-04-01 23:12:00,
2013-04-01 19:27:00,40.5,20.0,30.07,WNW,293,5.0,10.0,44,0.00,,,0.00,weatherlink.com 1.10,2013-04-01 23:27:00,
2013-04-01 19:42:00,39.7,20.0,30.07,West,278,3.0,7.0,45,0.00,,,0.00,weatherlink.com 1.10,2013-04-01 23:42:00,
2013-04-01 20:12:00,37.9,20.0,30.07,West,274,3.0,6.0,48,0.00,,,0.00,weatherlink.com 1.10,2013-04-02 00:12:00,
2013-04-01 20:27:00,37.0,20.0,30.07,NNW,333,1.0,6.0,50,0.00,,,0.00,weatherlink.com 1.10,2013-04-02 00:27:00,
2013-04-01 20:42:00,36.4,20.0,30.08,West,269,2.0,5.0,52,0.00,,,0.00,weatherlink.com 1.10,2013-04-02 00:42:00,
2013-04-01 20:57:00,36.1,20.0,30.09,NW,326,2.0,4.0,53,0.00,,,0.00,weatherlink.com 1.10,2013-04-02 00:57:00,
2013-04-01 21:12:00,35.8,20.0,30.09,WNW,295,3.0,6.0,52,0.00,,,0.00,weatherlink.com 1.10,2013-04-02 01:12:00,
2013-04-01 21:27:00,35.5,20.0,30.09,WNW,287,0.0,4.0,54,0.00,,,0.00,weatherlink.com 1.10,2013-04-02 01:27:00,
2013-04-01 21:42:00,34.9,20.0,30.10,West,267,0.0,5.0,55,0.00,,,0.00,weatherlink.com 1.10,2013-04-02 01:42:00,
2013-04-01 21:57:00,34.2,20.0,30.11,WNW,290,2.0,5.0,56,0.00,,,0.00,weatherlink.com 1.10,2013-04-02 01:57:00,
2013-04-01 22:12:00,33.9,20.0,30.11,North,4,2.0,5.0,58,0.00,,,0.00,weatherlink.com 1.10,2013-04-02 02:12:00,
2013-04-01 22:27:00,33.4,21.0,30.12,NNE,19,0.0,5.0,60,0.00,,,0.00,weatherlink.com 1.10,2013-04-02 02:27:00,
2013-04-01 22:42:00,32.8,21.0,30.13,NNE,30,1.0,2.0,63,0.00,,,0.00,weatherlink.com 1.10,2013-04-02 02:42:00,
2013-04-01 22:57:00,31.9,21.0,30.13,North,353,0.0,2.0,64,0.00,,,0.00,weatherlink.com 1.10,2013-04-02 02:57:00,
2013-04-01 23:12:00,31.2,20.0,30.13,WNW,296,0.0,3.0,64,0.00,,,0.00,weatherlink.com 1.10,2013-04-02 03:12:00,
2013-04-01 23:27:00,30.4,20.0,30.14,NW,311,0.0,1.0,65,0.00,,,0.00,weatherlink.com 1.10,2013-04-02 03:27:00,
2013-04-01 23:42:00,29.2,19.0,30.14,NW,322,0.0,1.0,67,0.00,,,0.00,weatherlink.com 1.10,2013-04-02 03:42:00,
2013-04-01 23:57:00,28.1,19.0,30.14,NW,320,0.0,0.0,68,0.00,,,0.00,weatherlink.com 1.10,2013-04-02 03:57:00,